FREGAT R/B, 40891

Orbit data source: Space-Track

FREGAT R/B, 40891 is space debris originally from a launch on Fri, 11 Sep 2015 UTC launched from the French Guiana (FRGUI). Debris objects in space refer to the collection of defunct objects orbiting the Earth. Examples of debris include non-operational satellites, rocket bodies, and fragments generated from explosions, collisions, or faulty payload assembly.

Loading next visibility...
Identifier
40891, 2015-045C
Orbit
Active
Country
Flag of CISCIS
Related business
Manufacturer
Lavochkin
Mission
Spacecraft
Bus & Motor
FREGAT, Unknown motor
Mass
1,050 kg wet, 1,050 kg dry
Launch date (UTC)
2015-09-11 (10 years ago)
Launch vehicle
Unknown
Launch site
French Guiana (FRGUI)
Object type
Payload
Rocket body
Debris
Shape & HBR
Irr, 1.6 m
Radar Cross Section
11.055 m²

Expand to show TLE details & history
Last TLE update: 6 days ago

TLE from 6 days ago
0 FREGAT R/B
1 40891U 15045C   25253.92499036  .00000041  00000-0  00000-0 0  9991
2 40891  54.9051 232.3709 0027964 231.6703 128.0449  1.67827566 61311
Epoch: 2025-09-10T22:11Z
TLE epoch observation values (Epoch: 2025-09-10T22:11:59.167Z)
Latitude
-0.00002°
Longitude
-90.82915°
Altitude
23,584.456 km
Speed
3.644 km/s
True Right ascension
15h 29m 26s
True Declination
0° 00' 00"
Sunlit
Object was in daylight at epoch
Visualization orbit readout
Latitude
Unknown
Longitude
Unknown
Altitude
Unknown
Speed
Unknown
Apparent Right ascension
Unknown
Apparent Declination
Unknown
Sunlit
N/A
Visualization observer readout
Local Sidereal Time
06:33:03
Azimuth
Unknown
Elevation
Unknown
Doppler factor
Unknown
Orbital elements
Apogee altitude
23,616.199 km
Perigee altitude
23,448.915 km
Semi-major axis
29,910.694 km
Eccentricity
0.0028
Inclination
54.9051°
RAAN
232.3709°
Arg. of periapsis
231.6703°
True anomaly
128.29672°
Mean anomaly
128.0449°
Eccentric anomaly
128.17086°
Mean motion
0.41957 °/min
Orbital period
858.02 mins
BSTAR
0
Loading maneuver chart data...
Computing Atmospheric mass density...
Loading historical data...
Loading historical data...
Loading historical data...
Loading historical data...
Loading historical data...
Loading historical data...
Loading historical data...
Other satellites on launch #45 in the year 2015 (2015-09-11 UTC)

Documentation

Showing up to 5 results
|